Park Rapids, MN

12:38 AM CST on February 21, 2017 (GMT -0600)
Park Rapids Municipal

Weather History for KPKD - December, 2011

Change the Weather History Date:

Monday, December 5, 2011

  Actual Average Record
Temperature  
Mean Temperature 4 °F -  
Max Temperature 12 °F 26 °F 43 °F (1988)
Min Temperature -5 °F 8 °F -23 °F (1955)
Degree Days  
Heating Degree Days 62    
Moisture  
Dew Point 1 °F    
Average Humidity 74    
Maximum Humidity 92    
Minimum Humidity 49    
Precipitation  
Precipitation 0.00 in - - ()
Sea Level Pressure  
Sea Level Pressure 30.53 in    
Wind  
Wind Speed 5 mph (NNW)    
Max Wind Speed 10 mph    
Max Gust Speed -    
Visibility 9 miles    
Events Snow    
Averages and records for this station are not official NWS values.
T = Trace of Precipitation, MM = Missing Value Source: NWS Daily Summary

Daily Weather History Graph

Daily Weather History Graph

Search for Another Location

Airport or City:

Trip Planner

Search our weather history database for the weather conditions in past years. The results will help you decide how hot, cold, wet, or windy it might be!

Date:

Astronomy

Dec. 05, 2011 Rise Set
Actual Time 7:49 AM CST 4:32 PM CST
Civil Twilight 7:14 AM CST 5:07 PM CST
Nautical Twilight 6:36 AM CST 5:45 PM CST
Astronomical Twilight 5:59 AM CST 6:22 PM CST
Moon 1:41 PM CST (12/5) 2:59 AM CST (12/5)
Length of Visible Light 9h 52m
Length of Day
8h 42m
Waxing Gibbous, 80% of the Moon is Illuminated
Dec 5
Waxing Gibbous
Dec 10
Full
Dec 17
Last Quarter
Dec 24
New
Jan 1
First Quarter

Hourly Weather History & Observations

Time (CST) Temp. Windchill Dew Point Humidity Pressure Visibility Wind Dir Wind Speed Gust Speed Precip Events Conditions
12:43 AM 12.2 °F 6.1 °F 10.4 °F 92% 30.38 in 10.0 mi NNW 3.5 mph - N/A   Overcast
12:53 AM 12.9 °F 5.2 °F 10.0 °F 88% 30.47 in 10.0 mi North 4.6 mph - N/A   Overcast
1:53 AM 12.9 °F - 9.0 °F 84% 30.47 in 4.0 mi Calm Calm - 0.00 in Snow Light Snow
2:53 AM 12.9 °F 2.6 °F 7.0 °F 77% 30.49 in 9.0 mi North 6.9 mph - 0.00 in   Overcast
3:53 AM 12.2 °F -0.2 °F 6.8 °F 79% 30.40 in 6.0 mi NNW 9.2 mph - N/A Snow Light Snow
4:53 AM 12.0 °F 0.5 °F 6.1 °F 77% 30.51 in 5.0 mi NNW 8.1 mph - 0.00 in Snow Light Snow
5:53 AM 10.9 °F -2.6 °F 5.0 °F 77% 30.52 in 9.0 mi NNW 10.4 mph - 0.00 in   Overcast
6:53 AM 12.0 °F 0.5 °F 5.0 °F 73% 30.54 in 9.0 mi NNW 8.1 mph - 0.00 in   Overcast
7:53 AM 10.9 °F 0.2 °F 5.0 °F 77% 30.56 in 10.0 mi NNW 6.9 mph - N/A   Overcast
8:53 AM 10.0 °F -0.9 °F 5.0 °F 80% 30.58 in 10.0 mi NNW 6.9 mph - 0.00 in   Overcast
9:53 AM 8.6 °F -4.7 °F 3.2 °F 79% 30.49 in 10.0 mi North 9.2 mph - N/A   Overcast
10:53 AM 8.1 °F -5.3 °F 1.9 °F 76% 30.61 in 10.0 mi NNW 9.2 mph - N/A   Overcast
11:53 AM 9.0 °F -0.9 °F 3.0 °F 77% 30.61 in 10.0 mi NNW 5.8 mph - N/A   Overcast
12:53 PM 10.9 °F 0.2 °F 3.0 °F 70% 30.57 in 10.0 mi NW 6.9 mph - N/A   Overcast
1:31 PM 10.4 °F 2.2 °F 1.4 °F 67% 30.45 in 10.0 mi North 4.6 mph - N/A   Scattered Clouds
1:53 PM 12.0 °F - 3.0 °F 67% 30.55 in 10.0 mi Calm Calm - N/A   Clear
2:53 PM 12.9 °F 1.6 °F -0.9 °F 54% 30.55 in 10.0 mi NNW 8.1 mph - N/A   Clear
3:53 PM 12.9 °F 3.8 °F -2.9 °F 49% 30.56 in 10.0 mi NNW 5.8 mph - N/A   Clear
4:53 PM 5.0 °F -5.6 °F -4.0 °F 66% 30.57 in 10.0 mi WNW 5.8 mph - N/A   Clear
5:53 PM 3.0 °F -9.3 °F -5.1 °F 69% 30.58 in 10.0 mi NW 6.9 mph - N/A   Clear
6:53 PM 1.9 °F -7.6 °F -6.0 °F 69% 30.56 in 10.0 mi NW 4.6 mph - N/A   Clear
7:53 PM -2.0 °F - -9.0 °F 72% 30.56 in 10.0 mi Calm Calm - N/A   Clear
8:53 PM -4.0 °F - -9.9 °F 76% 30.56 in 10.0 mi Calm Calm - N/A   Clear
9:53 PM -5.1 °F -13.6 °F -9.9 °F 80% 30.54 in 10.0 mi West 3.5 mph - N/A   Clear
10:53 PM -5.1 °F -13.6 °F -9.9 °F 80% 30.55 in 10.0 mi West 3.5 mph - N/A   Clear
11:53 PM -4.0 °F - -9.0 °F 79% 30.54 in 10.0 mi Calm Calm - N/A   Clear